Location: Vancouver
(49.2500°N, 123.1330°W)
Time: 00:19:54
(UTC-07:00)

A-11 Canister half - Visible Passes

Search period start: 19 April 2014 00:00
Search period end: 29 April 2014 00:00
Orbit: 1526 x 1683 km, 47.3° (Epoch: 17 April)

Date Brightness Start Highest point End Pass type
(mag) Time Alt. Az. Time Alt. Az. Time Alt. Az.
19 Apr 10.1 20:35:51 10° WNW 20:44:55 39° SW 20:53:50 10° SSE visible
19 Apr 11.0 22:45:12 10° WSW 22:47:40 11° WSW 22:50:08 10° SW visible
20 Apr 11.0 22:22:53 10° W 22:26:16 12° WSW 22:29:38 10° SW visible
21 Apr 11.0 22:00:47 10° W 22:04:51 13° WSW 22:08:54 10° SSW visible
22 Apr 11.0 21:38:48 10° W 21:43:26 14° WSW 21:48:03 10° SSW visible
23 Apr 11.0 21:16:55 10° W 21:22:01 15° SW 21:27:06 10° SSW visible
24 Apr 11.0 20:55:04 10° W 21:00:36 16° SW 21:06:06 10° SSW visible
